Wind_Speed
29 29 29 29 29 29 29 29 30 28 28 27 27 28 28 28 28 27 27 27 27 28 28 27 28 28 28 28 26 25 25 24 25 26 26 27 28 28 29 31 31 32 33 34
30 30 30 30 29 29 29 29 29 29 27 27 28 28 28 28 28 28 28 28 28 28 28 28 29 29 28 29 28 27 26 25 25 25 24 25 26 27 28 28 29 30 32 34
32 31 32 32 29 29 29 29 29 29 27 28 28 29 29 29 29 29 29 30 30 29 29 29 30 30 30 29 29 28 26 25 24 23 23 24 26 27 28 28 29 30 31 32
34 33 34 32 31 30 30 29 29 29 28 29 29 29 29 30 30 30 30 30 30 30 30 30 31 31 31 30 28 28 26 25 24 24 23 24 25 26 27 28 28 29 29 30
35 35 35 33 31 30 30 30 29 29 30 30 30 29 29 30 31 31 31 31 32 31 31 31 32 32 31 30 29 28 26 25 25 24 24 24 25 25 24 25 25 25 25 27
35 36 36 33 32 31 32 31 30 30 31 31 30 30 30 31 31 32 33 32 33 32 32 33 33 32 31 30 28 28 27 26 26 25 24 23 24 24 24 24 24 24 24 25
35 36 36 33 33 33 33 32 32 31 31 31 31 31 31 32 33 33 33 34 34 33 33 33 33 32 32 30 29 28 27 27 26 26 24 23 23 23 22 22 22 22 23 24
36 36 34 33 33 32 33 33 33 33 32 32 32 32 33 34 34 34 34 35 35 34 33 33 33 32 32 30 28 27 27 27 25 24 23 23 22 21 21 22 22 22 22 23
37 36 35 34 33 33 34 33 33 33 33 33 33 33 34 35 35 35 36 36 36 35 34 34 33 33 32 31 29 28 27 26 25 24 23 23 22 21 21 22 22 22 23 23
37 35 35 34 34 35 35 35 35 34 34 34 35 35 35 36 36 37 37 37 36 36 35 34 33 32 31 30 29 28 27 26 25 24 23 23 22 21 21 21 21 22 21 22
36 35 35 35 35 36 36 35 35 35 35 35 36 36 36 36 37 37 37 37 37 36 35 34 32 32 31 30 29 28 27 26 25 24 24 23 23 22 22 22 22 22 22 22
36 35 36 36 36 37 37 36 35 36 36 36 37 37 37 37 37 37 37 37 37 36 34 33 32 31 31 30 29 28 26 25 24 24 24 23 22 22 21 22 22 21 21 21
37 37 38 38 38 37 37 37 36 36 37 37 37 37 37 37 37 37 37 37 36 35 34 32 31 31 30 29 27 26 25 24 23 23 23 23 23 23 22 21 21 21 21 22
38 39 39 38 38 38 38 37 37 37 37 38 38 38 38 37 37 37 37 36 35 34 33 32 30 29 28 26 26 25 24 23 22 22 23 23 23 24 23 23 23 22 23 23
38 39 39 39 38 38 38 38 37 37 38 39 39 39 38 38 38 37 37 36 35 34 33 31 30 28 27 26 25 24 24 23 23 24 24 24 25 25 25 25 24 24 24 24
39 39 39 38 37 37 37 38 38 39 39 39 39 39 39 38 38 37 37 36 35 34 33 31 29 28 27 26 25 25 25 25 25 25 25 25 26 26 25 25 25 24 24 24
38 37 37 37 37 37 37 38 38 39 39 39 39 39 38 38 37 37 36 36 34 34 32 30 29 28 27 27 27 27 27 27 27 26 25 25 25 26 26 25 25 24 23 23
37 36 36 36 36 36 37 38 39 39 38 38 38 38 37 37 36 36 35 34 34 33 31 30 29 28 28 28 28 28 27 26 26 25 25 25 25 26 26 26 25 24 23 23
36 36 36 36 36 37 38 39 39 38 38 38 37 37 37 36 35 34 34 33 32 31 30 30 29 29 28 28 28 28 27 26 25 25 25 26 26 25 25 25 24 23 22 21
35 35 35 36 37 37 38 38 38 37 37 36 36 36 36 35 34 33 32 32 32 31 30 30 30 29 29 28 28 27 26 26 26 25 25 25 25 25 24 24 24 23 22 21
34 35 36 36 36 36 36 36 36 36 36 35 35 34 34 34 33 32 31 31 31 30 30 30 29 28 28 27 27 26 26 26 26 25 24 24 24 24 24 23 23 23 23 22
32 33 34 35 35 35 35 34 34 34 34 34 33 33 33 33 32 31 30 30 30 30 29 29 28 27 27 26 26 25 25 25 24 23 23 23 23 22 22 22 23 22 22 21
30 31 32 33 33 33 33 33 32 32 32 32 32 32 32 31 31 30 29 30 30 29 28 28 27 26 26 25 24 24 23 23 22 22 22 21 21 20 20 21 22 21 20 19
29 29 30 30 30 30 31 32 32 32 32 32 32 31 31 30 30 30 29 28 28 27 26 26 26 25 24 23 22 22 21 21 21 21 20 20 19 19 19 20 20 20 19 18
29 29 29 29 29 30 30 30 30 30 31 30 30 30 30 29 29 28 27 26 25 25 24 24 23 22 21 21 20 20 20 20 20 20 19 19 19 18 18 18 18 19 18 18
28 28 29 29 30 30 30 29 29 29 29 28 28 28 27 27 27 27 26 25 24 23 22 21 21 20 20 19 19 18 18 18 18 18 18 18 17 16 17 17 18 18 18 17
28 29 29 29 29 29 29 28 28 27 27 26 26 26 26 25 25 25 24 23 23 21 20 19 19 18 17 16 16 15 15 15 16 16 16 15 15 14 15 16 16 16 16 16
Wind_Direction
279 282 285 289 293 296 296 298 300 303 306 307 307 309 310 311 311 310 310 313 315 315 314 314 314 313 312 311 308 305 298 291 285 278 274 271 267 263 259 256 254 252 252 253
276 280 283 286 291 294 295 296 298 298 302 304 304 307 308 309 309 309 309 311 314 315 313 313 313 312 312 311 308 306 302 296 290 283 277 272 267 265 262 259 256 256 257 253
275 278 281 285 290 292 294 295 295 296 298 299 300 302 305 307 307 308 309 311 313 314 313 312 311 312 311 310 308 305 304 298 294 288 280 273 270 268 265 262 259 259 257 252
275 278 281 286 288 290 292 293 293 294 296 296 298 301 303 305 306 306 307 309 312 311 311 311 310 310 309 307 307 305 303 300 294 287 284 279 274 270 265 263 261 258 255 251
275 277 281 284 287 289 290 290 291 293 294 295 296 298 301 303 304 305 306 308 309 309 309 309 309 309 307 305 304 303 301 298 295 289 283 280 277 271 264 261 259 255 253 251
275 278 282 285 286 287 288 288 289 291 292 294 294 297 300 301 302 303 306 307 308 307 306 307 307 306 305 303 302 300 298 296 293 289 284 279 275 270 266 264 259 255 253 250
274 277 281 284 286 287 288 290 289 289 291 293 295 298 300 302 302 303 304 305 306 305 304 305 305 305 304 302 299 297 295 294 291 287 283 279 277 273 268 266 262 257 253 250
272 275 280 283 284 285 287 288 289 289 290 292 295 297 299 301 301 302 303 304 304 303 303 303 303 301 301 300 297 294 292 291 289 285 279 276 276 272 270 266 261 257 254 251
270 274 277 279 282 284 285 286 287 288 289 291 294 296 297 298 299 300 301 302 303 301 301 301 300 299 297 296 294 292 291 288 283 281 277 274 272 268 266 264 259 254 253 250
269 271 275 278 281 282 284 285 286 286 288 291 294 295 296 297 298 298 299 300 301 300 299 299 297 296 294 293 292 290 287 285 281 278 275 275 271 266 265 263 258 254 253 249
268 270 273 276 279 281 283 285 286 287 289 291 293 294 295 296 297 298 298 300 300 300 299 298 296 294 292 290 289 287 284 282 278 275 272 270 268 267 268 265 260 256 255 253
267 270 272 275 278 280 282 284 286 287 288 291 293 294 295 296 296 297 298 299 299 299 297 296 295 293 291 288 287 284 282 280 276 273 271 268 266 265 267 266 261 258 258 255
265 268 271 274 277 280 281 283 284 285 288 291 293 293 294 295 295 295 296 298 298 297 296 296 294 292 290 287 285 283 281 279 275 273 271 268 266 265 267 265 262 258 258 258
264 267 270 273 276 278 280 282 284 286 287 290 291 292 293 294 295 295 296 297 297 296 295 294 292 290 288 285 282 280 279 276 273 271 271 269 267 267 267 265 263 260 259 259
265 268 270 273 275 277 279 282 284 286 288 289 290 291 292 293 293 294 295 296 295 294 293 292 290 287 285 282 279 277 276 274 273 271 271 269 268 268 267 265 263 261 260 257
265 269 271 273 275 278 280 282 284 287 288 288 289 291 292 292 292 292 293 294 293 292 290 289 286 284 283 280 277 275 275 275 274 273 271 268 267 266 265 264 263 262 259 255
266 269 271 273 276 278 281 283 286 287 287 286 287 290 290 291 291 291 292 292 291 289 288 286 284 282 281 279 277 275 276 277 276 274 270 266 264 265 265 264 263 260 256 252
266 268 271 275 277 279 281 284 286 286 285 285 286 288 290 290 290 290 290 290 289 288 285 283 282 281 280 279 277 276 275 275 275 273 269 265 264 264 263 262 260 257 253 249
264 267 271 274 277 280 281 283 284 284 284 285 286 287 289 290 289 289 289 288 287 286 283 281 281 281 280 278 277 275 274 272 273 273 270 265 263 262 260 258 255 251 248 246
266 269 272 275 278 279 281 282 283 284 284 284 285 287 288 288 288 288 288 288 287 284 281 281 281 281 280 277 276 274 272 271 272 271 269 265 263 260 256 253 247 246 248 247
268 270 272 274 276 278 279 281 282 283 284 284 285 286 286 287 287 286 287 287 286 283 281 281 280 281 279 276 274 273 270 270 270 269 266 264 262 258 254 249 246 246 246 246
270 271 272 273 275 276 278 280 282 283 284 283 284 285 285 286 286 286 285 286 285 282 281 281 280 280 278 275 274 272 269 268 266 264 263 261 258 255 253 250 249 247 245 244
270 271 273 274 275 275 277 280 282 283 284 283 283 284 285 286 286 285 285 285 284 282 281 280 279 279 277 274 273 271 267 263 261 261 259 256 254 253 252 250 250 247 244 242
269 271 273 274 275 277 279 281 283 284 284 284 283 284 285 285 285 285 285 284 283 282 280 278 278 278 276 274 272 268 262 258 256 256 254 251 251 252 250 248 247 243 239 238
268 270 272 274 277 280 282 282 283 284 285 284 283 284 284 284 285 284 285 284 282 281 280 278 277 277 276 273 270 265 259 254 253 252 250 249 249 248 246 241 239 236 233 231
268 270 273 276 278 281 282 283 283 285 284 284 284 284 284 284 284 284 284 283 281 280 278 275 274 275 274 269 264 260 255 250 249 248 246 246 245 244 240 235 231 227 224 222
271 273 275 276 279 281 282 282 283 284 284 284 283 283 283 283 283 283 283 282 281 278 274 272 272 272 269 263 258 254 250 247 244 244 241 240 238 235 231 225 221 219 218 215
Height
5646 5645 5643 5641 5640 5636 5633 5630 5627 5625 5621 5618 5614 5610 5606 5602 5599 5595 5590 5586 5581 5577 5572 5567 5563 5558 5553 5548 5543 5539 5536 5533 5530 5529 5528 5527 5527 5527 5528 5529 5531 5533 5535 5538
5638 5636 5634 5633 5632 5629 5626 5623 5620 5617 5615 5612 5608 5604 5600 5597 5593 5589 5585 5581 5576 5571 5567 5562 5558 5553 5549 5544 5539 5534 5531 5527 5525 5523 5521 5521 5520 5520 5520 5522 5524 5525 5527 5530
5628 5627 5625 5625 5625 5622 5619 5616 5613 5610 5609 5605 5601 5598 5594 5590 5587 5583 5579 5575 5571 5566 5561 5557 5553 5548 5544 5539 5534 5529 5526 5523 5520 5517 5516 5514 5514 5514 5514 5515 5516 5518 5519 5521
5618 5618 5616 5620 5616 5614 5611 5609 5605 5602 5600 5597 5594 5591 5588 5584 5580 5576 5573 5569 5564 5560 5556 5551 5547 5542 5538 5534 5529 5525 5521 5518 5515 5513 5511 5509 5508 5507 5507 5508 5509 5510 5512 5514
5607 5606 5606 5609 5607 5604 5602 5600 5598 5594 5592 5589 5586 5585 5582 5578 5573 5569 5565 5562 5557 5553 5549 5545 5541 5536 5532 5528 5524 5520 5517 5513 5510 5507 5506 5504 5503 5502 5501 5502 5503 5504 5505 5507
5597 5596 5596 5600 5598 5594 5593 5591 5590 5586 5584 5581 5578 5577 5575 5570 5566 5562 5558 5554 5550 5547 5543 5538 5534 5530 5525 5521 5518 5514 5511 5508 5505 5502 5500 5499 5498 5497 5496 5497 5497 5498 5499 5501
5587 5586 5587 5589 5587 5585 5584 5583 5580 5577 5575 5573 5570 5568 5565 5562 5558 5554 5551 5547 5543 5539 5535 5530 5526 5522 5518 5514 5511 5507 5504 5501 5499 5496 5495 5493 5492 5492 5491 5492 5492 5493 5494 5496
5578 5576 5580 5579 5576 5575 5574 5572 5570 5568 5566 5564 5562 5559 5556 5553 5550 5546 5543 5539 5534 5530 5527 5522 5518 5515 5511 5507 5504 5501 5498 5495 5492 5490 5489 5488 5487 5486 5486 5486 5486 5487 5488 5490
5568 5570 5569 5568 5566 5565 5563 5562 5560 5558 5557 5555 5553 5550 5548 5544 5541 5537 5534 5530 5526 5522 5518 5514 5510 5506 5503 5500 5496 5494 5491 5488 5486 5484 5483 5482 5481 5481 5481 5480 5481 5482 5483 5484
5557 5559 5558 5557 5556 5554 5553 5551 5550 5548 5547 5545 5543 5541 5538 5535 5532 5528 5524 5520 5516 5512 5509 5505 5501 5498 5495 5492 5489 5486 5484 5481 5479 5478 5477 5476 5475 5475 5475 5475 5475 5476 5477 5478
5546 5548 5547 5547 5545 5544 5542 5541 5540 5538 5537 5535 5533 5531 5528 5525 5522 5518 5515 5511 5507 5503 5499 5496 5492 5489 5486 5483 5480 5478 5476 5474 5472 5471 5470 5470 5469 5469 5469 5469 5469 5470 5472 5473
5535 5536 5535 5536 5534 5533 5532 5531 5530 5528 5527 5525 5522 5520 5518 5515 5512 5508 5505 5501 5497 5493 5490 5487 5483 5480 5476 5474 5471 5470 5468 5467 5465 5464 5463 5463 5463 5463 5462 5463 5463 5464 5465 5466
5523 5523 5523 5524 5523 5522 5521 5520 5519 5518 5516 5514 5512 5510 5507 5504 5501 5498 5495 5491 5487 5484 5480 5477 5474 5470 5467 5465 5463 5461 5460 5459 5458 5457 5456 5456 5455 5455 5456 5456 5456 5457 5458 5459
5511 5511 5512 5513 5512 5511 5510 5509 5508 5507 5505 5503 5501 5499 5496 5494 5491 5487 5484 5481 5477 5474 5470 5467 5464 5461 5459 5456 5455 5453 5452 5451 5450 5449 5449 5448 5448 5448 5449 5449 5450 5450 5451 5452
5500 5500 5500 5501 5501 5500 5499 5498 5497 5496 5494 5492 5490 5488 5485 5483 5480 5477 5473 5470 5467 5464 5461 5458 5455 5452 5450 5448 5447 5445 5444 5443 5442 5441 5441 5440 5440 5440 5441 5441 5442 5443 5444 5444
5488 5488 5488 5489 5489 5489 5488 5487 5486 5485 5483 5481 5478 5476 5474 5471 5469 5466 5462 5459 5456 5453 5451 5448 5446 5443 5441 5439 5438 5437 5436 5435 5434 5433 5432 5432 5432 5432 5433 5433 5434 5434 5435 5436
5476 5477 5478 5478 5478 5477 5477 5476 5474 5473 5471 5469 5467 5465 5462 5460 5457 5454 5451 5448 5445 5443 5440 5438 5436 5434 5432 5430 5429 5428 5427 5426 5425 5424 5423 5423 5424 5424 5424 5425 5426 5426 5427 5428
5465 5466 5467 5467 5467 5466 5465 5464 5462 5461 5459 5457 5455 5453 5451 5448 5446 5443 5440 5437 5435 5432 5430 5428 5426 5424 5423 5421 5420 5419 5418 5417 5416 5415 5415 5415 5415 5415 5416 5416 5417 5418 5420 5421
5453 5455 5455 5455 5455 5455 5454 5452 5451 5449 5448 5446 5444 5442 5439 5437 5434 5432 5429 5426 5424 5422 5420 5417 5416 5414 5413 5411 5410 5409 5408 5407 5407 5406 5406 5406 5406 5406 5407 5408 5409 5410 5412 5414
5442 5443 5444 5444 5444 5443 5442 5441 5439 5438 5436 5434 5432 5430 5428 5426 5423 5421 5418 5416 5413 5411 5410 5408 5406 5404 5402 5401 5400 5399 5398 5398 5397 5396 5396 5397 5397 5398 5399 5400 5401 5403 5405 5407
5431 5432 5432 5432 5432 5431 5430 5429 5428 5426 5424 5422 5421 5419 5417 5415 5412 5410 5408 5406 5404 5401 5399 5397 5395 5394 5392 5391 5389 5389 5388 5388 5388 5387 5388 5388 5389 5389 5390 5392 5393 5395 5397 5399
5420 5420 5421 5421 5420 5420 5419 5417 5416 5415 5413 5411 5409 5407 5406 5404 5402 5399 5397 5395 5393 5391 5389 5387 5385 5383 5382 5380 5380 5379 5378 5378 5379 5379 5379 5380 5381 5382 5383 5384 5386 5388 5390 5392
5410 5410 5410 5410 5409 5409 5408 5407 5405 5404 5402 5400 5399 5397 5395 5393 5391 5389 5387 5385 5382 5380 5379 5377 5375 5374 5372 5371 5370 5370 5369 5369 5370 5371 5371 5372 5374 5375 5376 5378 5379 5381 5383 5385
5400 5400 5400 5399 5399 5398 5397 5396 5395 5393 5392 5390 5388 5386 5384 5383 5381 5378 5376 5374 5372 5370 5369 5367 5366 5364 5363 5362 5361 5361 5361 5361 5362 5363 5364 5365 5366 5367 5369 5370 5372 5374 5376 5378
5390 5390 5390 5389 5389 5388 5387 5386 5384 5383 5381 5379 5378 5376 5374 5372 5371 5369 5367 5365 5363 5361 5359 5358 5356 5355 5354 5353 5352 5352 5353 5354 5355 5356 5357 5358 5359 5361 5362 5364 5366 5368 5371 5373
5380 5380 5380 5379 5379 5378 5377 5376 5374 5373 5371 5370 5368 5366 5364 5362 5361 5359 5357 5356 5354 5352 5351 5349 5348 5347 5346 5345 5345 5345 5345 5347 5348 5349 5350 5352 5353 5355 5356 5358 5361 5363 5366 5368
5370 5370 5370 5369 5369 5368 5367 5366 5364 5363 5361 5360 5359 5357 5355 5353 5352 5350 5349 5347 5346 5344 5343 5342 5341 5340 5339 5339 5339 5339 5340 5341 5342 5343 5345 5346 5348 5349 5351 5353 5356 5358 5361 5364